Weather History for Coffeyville, KS

Change the Weather History Date:

Sunday, January 6, 2013

  Actual Average Record
Temperature  
Mean Temperature 36 °F -  
Max Temperature 46 °F 42 °F 71 °F (2008)
Min Temperature 26 °F 23 °F -7 °F (2014)
Degree Days  
Heating Degree Days 29    
Moisture  
Dew Point 20 °F    
Average Humidity 60    
Maximum Humidity 78    
Minimum Humidity 33    
Precipitation  
Precipitation 0.00 in - - ()
Sea Level Pressure  
Sea Level Pressure 30.37 in    
Wind  
Wind Speed 5 mph (WNW)    
Max Wind Speed 10 mph    
Max Gust Speed -    
Visibility 10 miles    
Events      
Averages and records for this station are not official NWS values.
T = Trace of Precipitation, MM = Missing Value Source: NWS Daily Summary

Daily Weather History Graph

Daily Weather History Graph

Search for Another Location

Airport:

Trip Planner

Search our weather history database for the weather conditions in past years. The results will help you decide how hot, cold, wet, or windy it might be!

Date:

Astronomy

Jan. 06, 2013 Rise Set
Actual Time 7:36 AM CST 5:20 PM CST
Civil Twilight 7:07 AM CST 5:49 PM CST
Nautical Twilight 6:35 AM CST 6:21 PM CST
Astronomical Twilight 6:03 AM CST 6:53 PM CST
Moon 1:54 AM CST (1/6) 12:46 PM CST (1/6)
Length of Visible Light 10h 41m
Length of Day
9h 44m
Waning Crescent, 33% of the Moon is Illuminated
Jan 6
Waning Crescent
Jan 11
New
Jan 18
First Quarter
Jan 26
Full
Feb 3
Last Quarter

Hourly Weather History & Observations

Time (CST) Temp. Windchill Dew Point Humidity Pressure Visibility Wind Dir Wind Speed Gust Speed Precip Events Conditions
12:52 AM 28.0 °F 24.2 °F 21.9 °F 78% 30.29 in 10.0 mi West 3.5 mph - N/A   Clear
1:52 AM 28.9 °F 23.9 °F 21.9 °F 75% 30.30 in 10.0 mi West 4.6 mph - N/A   Clear
2:52 AM 30.0 °F 25.2 °F 21.9 °F 72% 30.31 in 10.0 mi West 4.6 mph - N/A   Clear
3:52 AM 28.9 °F 21.9 °F 21.9 °F 75% 30.32 in 10.0 mi WNW 6.9 mph - N/A   Clear
4:52 AM 30.0 °F 23.2 °F 21.9 °F 72% 30.33 in 10.0 mi WNW 6.9 mph - N/A   Clear
5:52 AM 28.0 °F 21.7 °F 21.0 °F 75% 30.34 in 10.0 mi WNW 5.8 mph - N/A   Clear
6:52 AM 28.0 °F 20.8 °F 19.9 °F 72% 30.37 in 10.0 mi NW 6.9 mph - N/A   Clear
7:52 AM 26.1 °F 19.4 °F 19.0 °F 75% 30.40 in 10.0 mi NW 5.8 mph - N/A   Clear
8:52 AM 30.0 °F 24.1 °F 21.9 °F 72% 30.42 in 10.0 mi NW 5.8 mph - N/A   Clear
9:52 AM 34.0 °F 26.6 °F 23.0 °F 64% 30.44 in 10.0 mi NNW 9.2 mph - N/A   Clear
10:52 AM 37.0 °F 31.6 °F 21.9 °F 54% 30.44 in 10.0 mi NNW 6.9 mph - N/A   Clear
11:52 AM 39.9 °F 35.1 °F 21.9 °F 49% 30.42 in 10.0 mi NNW 6.9 mph - N/A   Clear
12:52 PM 44.1 °F 38.6 °F 19.0 °F 37% 30.40 in 10.0 mi North 10.4 mph - N/A   Clear
1:52 PM 46.0 °F 43.1 °F 19.0 °F 34% 30.37 in 10.0 mi NNW 5.8 mph - N/A   Clear
2:52 PM 46.9 °F - 19.0 °F 33% 30.36 in 10.0 mi Calm Calm - N/A   Clear
3:52 PM 46.0 °F - 19.0 °F 34% 30.36 in 10.0 mi Calm Calm - N/A   Clear
4:52 PM 44.1 °F - 19.9 °F 38% 30.37 in 10.0 mi Calm Calm - N/A   Clear
5:52 PM 39.0 °F 35.7 °F 19.0 °F 45% 30.37 in 10.0 mi SSE 4.6 mph - N/A   Clear
6:52 PM 35.1 °F 30.1 °F 19.0 °F 52% 30.37 in 10.0 mi ESE 5.8 mph - N/A   Clear
7:52 PM 33.1 °F 26.9 °F 19.0 °F 56% 30.37 in 10.0 mi SE 6.9 mph - N/A   Clear
8:52 PM 30.0 °F 26.5 °F 19.0 °F 64% 30.38 in 10.0 mi SSE 3.5 mph - N/A   Clear
9:52 PM 28.0 °F - 19.0 °F 69% 30.37 in 10.0 mi Calm Calm - N/A   Clear
10:52 PM 30.0 °F 25.2 °F 19.9 °F 66% 30.37 in 10.0 mi South 4.6 mph - N/A   Clear
11:52 PM 26.1 °F 19.4 °F 19.0 °F 75% 30.37 in 10.0 mi SSE 5.8 mph - N/A   Clear